Simultaneous Nadir Overpasses (SNOs) Predictions

Prediction of SNOs between GOES-17 and NOAA-19 Satellite Orbit:

Table of predicted SNOs for the next 14.0 days since TLE Epoch: 8/26/2022
Index Date Time (GOES-17) GOES-17 Lat,Lon NOAA-19 Lat,Lon Distance(km) Time Diff (sec)
1 08/27/2022 17:05:43 -0.02,-137.32 -0.17,-136.71 69.96 80
2 08/28/2022 16:53:50 -0.01,-137.32 -0.80,-133.81 400.46 80
3 08/30/2022 05:23:37 0.03,-137.32 -0.96,-141.59 487.19 80
4 08/31/2022 05:11:45 0.02,-137.32 -0.30,-138.69 156.88 80
5 09/01/2022 05:02:32 0.02,-137.31 0.36,-135.79 173.24 80
6 09/03/2022 17:20:22 -0.02,-137.29 0.76,-140.65 383.45 80
7 09/04/2022 17:08:30 -0.02,-137.28 0.12,-137.75 54.49 80
8 09/05/2022 16:59:18 -0.02,-137.27 -0.59,-134.86 274.40 80
9 09/08/2022 05:17:10 0.03,-137.22 -0.55,-139.73 286.33 80
10 09/09/2022 05:07:58 0.03,-137.20 0.11,-136.83 42.33 80
